EW5655 Weather Reports


time (UTC)temp
C
wind
direction
speed
KPH
gust
KPH
rain 1hr
cm
rain 24hr
cm
rain mn
cm
humidity
%
barometer
mb
20260510031043 27 239 8.0 14.5 0.00 0.00 0.00 11 1012.4
20260510030541 27 272 8.0 16.1 0.00 0.00 0.00 11 1012.3
20260510030041 28 242 6.4 16.1 0.00 0.00 0.00 11 1012.2
20260510025541 28 254 6.4 14.5 0.00 0.00 0.00 11 1012.2
20260510025040 28 215 8.0 16.1 0.00 0.00 0.00 11 1012.1
20260510024545 28 221 9.7 16.1 0.00 0.00 0.00 11 1012.1
20260510024043 28 211 6.4 16.1 0.00 0.00 0.00 11 1012.0
20260510023540 28 248 8.0 19.3 0.00 0.00 0.00 11 1011.9
20260510023041 29 257 11.3 19.3 0.00 0.00 0.00 11 1011.8
20260510022540 29 248 9.7 17.7 0.00 0.00 0.00 11 1011.8
20260510022039 29 248 8.0 17.7 0.00 0.00 0.00 11 1011.7
20260510021540 29 232 9.7 20.9 0.00 0.00 0.00 11 1011.6
20260510021040 29 286 9.7 20.9 0.00 0.00 0.00 10 1011.5
20260510020540 30 261 9.7 19.3 0.00 0.00 0.00 11 1011.4
20260510020042 30 248 9.7 17.7 0.00 0.00 0.00 10 1011.4
20260510015539 30 281 8.0 16.1 0.00 0.00 0.00 10 1011.4
20260510015039 30 248 8.0 16.1 0.00 0.00 0.00 11 1011.3
20260510014539 30 228 6.4 19.3 0.00 0.00 0.00 10 1011.3
20260510014040 30 221 8.0 19.3 0.00 0.00 0.00 11 1011.2
20260510013539 30 224 9.7 17.7 0.00 0.00 0.00 10 1011.1
20260510013038 30 251 9.7 16.1 0.00 0.00 0.00 10 1011.1
20260510012538 31 252 8.0 19.3 0.00 0.00 0.00 10 1011.1
20260510012038 31 232 9.7 19.3 0.00 0.00 0.00 10 1011.1
20260510011549 31 252 11.3 19.3 0.00 0.00 0.00 10 1011.0
20260510011037 31 204 9.7 16.1 0.00 0.00 0.00 10 1011.0
20260510010537 31 224 8.0 12.9 0.00 0.00 0.00 10 1011.0
20260510010037 31 234 6.4 12.9 0.00 0.00 0.00 10 1011.0
20260510005537 31 198 6.4 12.9 0.00 0.00 0.00 10 1010.9
20260510005038 31 210 6.4 16.1 0.00 0.00 0.00 9 1011.0
20260510004540 32 184 9.7 16.1 0.00 0.00 0.00 9 1011.0
20260510004035 32 209 6.4 12.9 0.00 0.00 0.00 10 1011.0
20260510003535 32 194 6.4 12.9 0.00 0.00 0.00 9 1011.0
20260510003058 32 267 4.8 12.9 0.00 0.00 0.00 10 1011.0
20260510002534 32 231 8.0 20.9 0.00 0.00 0.00 9 1011.0
20260510002034 32 188 8.0 20.9 0.00 0.00 0.00 9 1011.0
20260510001539 32 240 4.8 19.3 0.00 0.00 0.00 9 1011.0
20260510001034 32 196 9.7 16.1 0.00 0.00 0.00 10 1011.0
20260510000533 32 152 9.7 20.9 0.00 0.00 0.00 9 1011.1
20260510000037 32 218 9.7 16.1 0.00 0.00 0.00 10 1011.1
20260509235532 32 281 6.4 16.1 0.00 0.00 0.00 10 1011.1
20260509235032 32 209 6.4 16.1 0.00 0.00 0.00 9 1011.2
20260509234536 32 206 8.0 14.5 0.00 0.00 0.00 9 1011.2
20260509234032 33 218 6.4 14.5 0.00 0.00 0.00 9 1011.2
20260509233531 33 136 8.0 16.1 0.00 0.00 0.00 10 1011.3
20260509233032 33 267 3.2 16.1 0.00 0.00 0.00 10 1011.3
20260509232532 33 242 3.2 17.7 0.00 0.00 0.00 10 1011.3
20260509232031 33 276 9.7 17.7 0.00 0.00 0.00 9 1011.4
20260509231539 33 210 4.8 20.9 0.00 0.00 0.00 9 1011.4
20260509231032 33 166 11.3 20.9 0.00 0.00 0.00 9 1011.4
20260509230529 33 158 9.7 20.9 0.00 0.00 0.00 9 1011.4
20260509230033 33 167 8.0 16.1 0.00 0.00 0.00 9 1011.5
20260509225530 33 156 8.0 17.7 0.00 0.00 0.00 9 1011.5
20260509225027 33 176 4.8 17.7 0.00 0.00 0.00 9 1011.7
20260509224529 33 186 11.3 17.7 0.00 0.00 0.00 9 1011.7
20260509224027 33 359 3.2 20.9 0.00 0.00 0.00 9 1011.6
20260509223526 33 323 6.4 20.9 0.00 0.00 0.00 9 1011.8
20260509223028 33 131 9.7 19.3 0.00 0.00 0.00 9 1011.9
20260509222524 33 129 6.4 12.9 0.00 0.00 0.00 9 1011.9
20260509222025 33 189 8.0 19.3 0.00 0.00 0.00 9 1012.0
20260509221524 33 164 11.3 19.3 0.00 0.00 0.00 9 1012.0
20260509221024 33 175 8.0 17.7 0.00 0.00 0.00 9 1012.1
20260509220523 33 186 8.0 12.9 0.00 0.00 0.00 9 1012.2
20260509220021 33 121 8.0 14.5 0.00 0.00 0.00 10 1012.2
20260509215523 33 104 8.0 19.3 0.00 0.00 0.00 9 1012.3
20260509215020 33 172 11.3 17.7 0.00 0.00 0.00 8 1012.3
20260509214520 33 126 8.0 14.5 0.00 0.00 0.00 9 1012.4
20260509214019 33 167 3.2 9.7 0.00 0.00 0.00 9 1012.5
20260509213521 32 167 0.0 20.9 0.00 0.00 0.00 9 1012.6
20260509213019 33 185 9.7 20.9 0.00 0.00 0.00 9 1012.8
20260509212518 33 259 8.0 16.1 0.00 0.00 0.00 9 1012.8
20260509212017 33 196 1.6 14.5 0.00 0.00 0.00 9 1012.9
20260509211515 33 219 6.4 14.5 0.00 0.00 0.00 10 1013.0
20260509211014 32 136 3.2 8.0 0.00 0.00 0.00 10 1013.1
20260509210513 32 9 1.6 8.0 0.00 0.00 0.00 10 1013.2
20260509210015 32 190 0.0 11.3 0.00 0.00 0.00 9 1013.3
20260509205511 32 202 4.8 14.5 0.00 0.00 0.00 9 1013.4
20260509205010 32 197 8.0 19.3 0.00 0.00 0.00 9 1013.5
20260509204510 33 220 9.7 19.3 0.00 0.00 0.00 10 1013.6
20260509204012 32 193 6.4 16.1 0.00 0.00 0.00 8 1013.5
20260509203611 32 192 9.7 19.3 0.00 0.00 0.00 8 1013.7
20260509203009 32 137 8.0 19.3 0.00 0.00 0.00 9 1013.7
20260509202508 32 170 4.8 14.5 0.00 0.00 0.00 10 1013.8
20260509202010 32 344 4.8 16.1 0.00 0.00 0.00 9 1013.9
20260509201510 32 186 9.7 16.1 0.00 0.00 0.00 11 1014.0
20260509201007 32 214 4.8 16.1 0.00 0.00 0.00 10 1014.1
20260509200507 32 267 1.6 16.1 0.00 0.00 0.00 10 1014.2
20260509200008 32 317 3.2 16.1 0.00 0.00 0.00 10 1014.2
20260509195508 32 263 9.7 14.5 0.00 0.00 0.00 11 1014.3
20260509195006 32 201 8.0 14.5 0.00 0.00 0.00 11 1014.4
20260509194510 32 96 3.2 14.5 0.00 0.00 0.00 12 1014.4
20260509194005 32 125 6.4 16.1 0.00 0.00 0.00 11 1014.5
20260509193504 32 198 9.7 16.1 0.00 0.00 0.00 11 1014.5
20260509193004 31 172 6.4 16.1 0.00 0.00 0.00 12 1014.6
20260509192503 31 236 4.8 16.1 0.00 0.00 0.00 11 1014.7
20260509192003 31 218 8.0 14.5 0.00 0.00 0.00 12 1014.7
20260509191503 31 180 0.0 14.5 0.00 0.00 0.00 12 1014.7
20260509191005 31 257 8.0 12.9 0.00 0.00 0.00 14 1014.7
20260509190503 31 155 3.2 11.3 0.00 0.00 0.00 13 1014.8
20260509190001 31 221 3.2 11.3 0.00 0.00 0.00 14 1014.8
20260509185600 31 246 3.2 9.7 0.00 0.00 0.00 13 1014.9
20260509185059 30 192 4.8 9.7 0.00 0.00 0.00 15 1014.9
20260509184602 30 261 1.6 11.3 0.00 0.00 0.00 15 1015.0
20260509184058 30 123 8.0 11.3 0.00 0.00 0.00 13 1015.1
20260509183559 30 207 3.2 9.7 0.00 0.00 0.00 14 1015.1
20260509183134 30 260 3.2 11.3 0.00 0.00 0.00 14 1015.1
20260509182554 30 244 6.4 11.3 0.00 0.00 0.00 15 1015.2
20260509182052 30 231 1.6 11.3 0.00 0.00 0.00 15 1015.2
20260509181608 29 167 4.8 11.3 0.00 0.00 0.00 15 1015.4
20260509181051 29 236 3.2 11.3 0.00 0.00 0.00 15 1015.4
20260509180550 29 176 4.8 11.3 0.00 0.00 0.00 15 1015.5
20260509180050 29 213 4.8 11.3 0.00 0.00 0.00 16 1015.5
20260509175548 28 221 0.0 11.3 0.00 0.00 0.00 15 1015.6
20260509175046 28 217 0.0 11.3 0.00 0.00 0.00 15 1015.6
20260509174545 28 150 1.6 8.0 0.00 0.00 0.00 15 1015.6
20260509174044 28 164 3.2 8.0 0.00 0.00 0.00 15 1015.7
20260509173542 27 286 0.0 8.0 0.00 0.00 0.00 15 1015.6
20260509173040 27 286 3.2 8.0 0.00 0.00 0.00 16 1015.7
20260509172539 27 291 1.6 8.0 0.00 0.00 0.00 17 1015.7
20260509172039 27 305 3.2 8.0 0.00 0.00 0.00 16 1015.7
20260509171538 26 192 1.6 8.0 0.00 0.00 0.00 17 1015.8
20260509171035 26 167 3.2 8.0 0.00 0.00 0.00 18 1015.8
20260509170534 26 207 0.0 9.7 0.00 0.00 0.00 18 1015.8
20260509170032 26 170 3.2 11.3 0.00 0.00 0.00 19 1015.8
20260509165530 25 142 4.8 11.3 0.00 0.00 0.00 20 1015.8
20260509165029 25 192 1.6 8.0 0.00 0.00 0.00 19 1015.8
20260509164527 25 194 4.8 11.3 0.00 0.00 0.00 20 1015.9
20260509164027 25 187 4.8 11.3 0.00 0.00 0.00 22 1015.9
20260509163524 25 194 3.2 9.7 0.00 0.00 0.00 20 1015.9
20260509163030 24 211 4.8 9.7 0.00 0.00 0.00 22 1015.9
20260509162524 24 157 4.8 9.7 0.00 0.00 0.00 23 1015.9
20260509162025 24 207 4.8 9.7 0.00 0.00 0.00 23 1015.8
20260509161519 23 213 3.2 9.7 0.00 0.00 0.00 23 1015.8
20260509161018 23 198 3.2 9.7 0.00 0.00 0.00 24 1015.9
20260509160520 23 155 3.2 9.7 0.00 0.00 0.00 24 1015.9
20260509160014 22 184 3.2 11.3 0.00 0.00 0.00 23 1015.9
20260509155514 22 213 4.8 11.3 0.00 0.00 0.00 24 1015.9
20260509155012 22 171 6.4 9.7 0.00 0.00 0.00 24 1015.8
20260509154512 22 231 4.8 9.7 0.00 0.00 0.00 25 1015.8
20260509154009 22 190 1.6 11.3 0.00 0.00 0.00 26 1015.8
20260509153507 21 215 6.4 11.3 0.00 0.00 0.00 26 1015.9
20260509153006 21 200 6.4 11.3 0.00 0.00 0.00 25 1015.9
20260509152505 21 219 4.8 11.3 0.00 0.00 0.00 26 1015.9
20260509152005 21 211 4.8 9.7 0.00 0.00 0.00 26 1015.9
20260509151503 21 190 6.4 9.7 0.00 0.00 0.00 26 1015.9
20260509151100 20 186 4.8 11.3 0.00 0.00 0.00 26 1015.8
20260509150559 20 201 6.4 11.3 0.00 0.00 0.00 26 1015.8
20260509150058 20 144 6.4 9.7 0.00 0.00 0.00 26 1015.9
20260509145556 20 156 4.8 11.3 0.00 0.00 0.00 27 1015.8
20260509145055 20 215 6.4 11.3 0.00 0.00 0.00 28 1015.8
20260509144553 19 213 3.2 8.0 0.00 0.00 0.00 28 1015.8
20260509144052 18 200 1.6 8.0 0.00 0.00 0.00 29 1015.8
20260509143550 18 200 1.6 8.0 0.00 0.00 0.00 29 1015.8
20260509143050 18 286 3.2 8.0 0.00 0.00 0.00 29 1015.8
20260509142548 18 294 1.6 8.0 0.00 0.00 0.00 30 1015.7
20260509142047 18 269 4.8 8.0 0.00 0.00 0.00 29 1015.7
20260509141546 18 261 3.2 8.0 0.00 0.00 0.00 29 1015.6
20260509141046 18 326 1.6 4.8 0.00 0.00 0.00 30 1015.6
20260509140545 18 42 1.6 3.2 0.00 0.00 0.00 29 1015.6
20260509140054 18 42 1.6 3.2 0.00 0.00 0.00 29 1015.5
20260509135544 17 42 0.0 6.4 0.00 0.00 0.00 29 1015.5
20260509135045 17 42 0.0 6.4 0.00 0.00 0.00 32 1015.6
20260509134544 16 42 0.0 1.6 0.00 0.00 0.00 31 1015.5
20260509134044 16 42 0.0 3.2 0.00 0.00 0.00 31 1015.5
20260509133543 16 42 0.0 3.2 0.00 0.00 0.00 33 1015.5
20260509133043 15 42 0.0 6.4 0.00 0.00 0.00 33 1015.5
20260509132545 15 42 1.6 6.4 0.00 0.00 0.00 33 1015.5
20260509132043 15 69 0.0 6.4 0.00 0.00 0.00 33 1015.6
20260509131541 14 73 1.6 6.4 0.00 0.00 0.00 34 1015.5
20260509131040 14 74 1.6 11.3 0.00 0.00 0.00 35 1015.4
20260509130540 14 60 3.2 8.0 0.00 0.00 0.00 36 1015.3
20260509130039 13 69 4.8 8.0 0.00 0.00 0.00 35 1015.3
20260509125538 14 63 1.6 6.4 0.00 0.00 0.00 35 1015.3
20260509125038 14 43 1.6 6.4 0.00 0.00 0.00 34 1015.3
20260509124537 14 360 0.0 8.0 0.00 0.00 0.00 34 1015.1
20260509124036 14 347 1.6 9.7 0.00 0.00 0.00 32 1015.2
20260509123539 14 347 4.8 9.7 0.00 0.00 0.00 33 1015.1
20260509123035 14 321 0.0 8.0 0.00 0.00 0.00 35 1014.9
20260509122533 13 42 0.0 4.8 0.00 0.00 0.00 35 1014.8
20260509122033 14 43 0.0 6.4 0.00 0.00 0.00 32 1014.7
20260509121537 14 64 1.6 4.8 0.00 0.00 0.00 33 1014.6
20260509121031 13 64 1.6 3.2 0.00 0.00 0.00 33 1014.4
20260509120531 13 64 0.0 1.6 0.00 0.00 0.00 34 1014.4
20260509120030 13 64 0.0 1.6 0.00 0.00 0.00 35 1014.3
20260509115528 14 64 0.0 1.6 0.00 0.00 0.00 35 1014.3
20260509115027 14 64 0.0 6.4 0.00 0.00 0.00 34 1014.3
20260509114527 14 64 1.6 6.4 0.00 0.00 0.00 33 1014.3
20260509114026 15 90 0.0 6.4 0.00 0.00 0.00 33 1014.1
20260509113525 15 90 0.0 6.4 0.00 0.00 0.00 31 1014.2
20260509113024 15 94 1.6 4.8 0.00 0.00 0.00 32 1014.0
20260509112524 14 94 1.6 3.2 0.00 0.00 0.00 33 1014.0
20260509112023 15 94 0.0 6.4 0.00 0.00 0.00 31 1013.9
20260509111523 15 94 0.0 6.4 0.00 0.00 0.00 29 1013.9
20260509111022 15 130 0.0 3.2 0.00 0.00 0.00 30 1013.9
20260509110522 15 130 0.0 3.2 0.00 0.00 0.00 30 1013.8
20260509110021 15 130 1.6 3.2 0.00 0.00 0.00 29 1013.9
20260509105523 15 130 0.0 3.2 0.00 0.00 0.00 29 1013.7
20260509105024 15 130 0.0 3.2 0.00 0.00 0.00 28 1013.7
20260509104533 15 130 0.0 3.2 0.00 0.00 0.00 29 1013.7
20260509104020 15 130 0.0 3.2 0.00 0.00 0.00 29 1013.7
20260509103519 16 130 0.0 3.2 0.00 0.00 0.00 28 1013.7
20260509103019 16 130 0.0 3.2 0.00 0.00 0.00 27 1013.7
20260509102519 16 130 0.0 3.2 0.00 0.00 0.00 27 1013.6
20260509102019 16 130 0.0 3.2 0.00 0.00 0.00 28 1013.6
20260509101519 16 130 0.0 3.2 0.00 0.00 0.00 27 1013.6
20260509101021 16 130 0.0 1.6 0.00 0.00 0.00 26 1013.5
20260509100517 16 130 0.0 3.2 0.00 0.00 0.00 28 1013.6
20260509100017 16 130 0.0 6.4 0.00 0.00 0.00 26 1013.5
20260509095516 16 130 1.6 6.4 0.00 0.00 0.00 27 1013.5
20260509095015 16 130 0.0 3.2 0.00 0.00 0.00 26 1013.6
20260509094515 16 130 1.6 3.2 0.00 0.00 0.00 25 1013.5
20260509094014 16 130 0.0 1.6 0.00 0.00 0.00 28 1013.5
20260509093517 16 130 0.0 3.2 0.00 0.00 0.00 27 1013.5
20260509093013 16 130 0.0 3.2 0.00 0.00 0.00 27 1013.5
20260509092513 16 130 0.0 1.6 0.00 0.00 0.00 27 1013.4
20260509092013 16 130 0.0 1.6 0.00 0.00 0.00 27 1013.4
20260509091512 17 130 0.0 0.0 0.00 0.00 0.00 26 1013.5
20260509091013 17 130 0.0 1.6 0.00 0.00 0.00 25 1013.5
20260509090511 17 130 0.0 3.2 0.00 0.00 0.00 24 1013.4
20260509090012 18 130 0.0 9.7 0.00 0.00 0.00 22 1013.5
20260509085513 18 130 1.6 9.7 0.00 0.00 0.00 22 1013.4
20260509085010 17 142 0.0 6.4 0.00 0.00 0.00 26 1013.4
20260509084521 17 142 0.0 6.4 0.00 0.00 0.00 26 1013.4
20260509084009 17 223 0.0 3.2 0.00 0.00 0.00 25 1013.5
20260509083508 17 223 0.0 3.2 0.00 0.00 0.00 26 1013.5
20260509083009 17 223 1.6 3.2 0.00 0.00 0.00 26 1013.4
20260509082509 17 223 0.0 3.2 0.00 0.00 0.00 26 1013.4
20260509082009 17 225 0.0 3.2 0.00 0.00 0.00 26 1013.4
20260509081507 18 225 0.0 3.2 0.00 0.00 0.00 25 1013.5
20260509081011 18 225 0.0 3.2 0.00 0.00 0.00 24 1013.5
20260509080509 18 225 0.0 3.2 0.00 0.00 0.00 25 1013.5
20260509080019 17 225 0.0 6.4 0.00 0.00 0.00 26 1013.5
20260509075505 18 225 3.2 8.0 0.00 0.00 0.00 27 1013.5
20260509075004 18 225 0.0 8.0 0.00 0.00 0.00 26 1013.6
20260509074505 18 96 0.0 6.4 0.00 0.00 0.00 24 1013.6
20260509074004 18 44 0.0 6.4 0.00 0.00 0.00 25 1013.6
20260509073503 18 44 0.0 4.8 0.00 0.00 0.00 24 1013.6
20260509073004 18 44 0.0 3.2 0.00 0.00 0.00 23 1013.5
20260509072504 18 44 0.0 3.2 0.00 0.00 0.00 22 1013.6
20260509072003 18 44 0.0 3.2 0.00 0.00 0.00 23 1013.6
20260509071503 18 44 0.0 3.2 0.00 0.00 0.00 24 1013.7
20260509071004 18 44 0.0 1.6 0.00 0.00 0.00 26 1013.7
20260509070503 18 44 0.0 1.6 0.00 0.00 0.00 25 1013.7
20260509070001 18 44 0.0 3.2 0.00 0.00 0.00 26 1013.7
20260509065500 18 44 0.0 3.2 0.00 0.00 0.00 26 1013.6
20260509065100 18 44 0.0 1.6 0.00 0.00 0.00 26 1013.7
20260509064617 18 44 0.0 1.6 0.00 0.00 0.00 25 1013.7
20260509064100 18 44 0.0 0.0 0.00 0.00 0.00 26 1013.6
20260509063558 18 44 0.0 3.2 0.00 0.00 0.00 25 1013.6
20260509063100 18 44 0.0 3.2 0.00 0.00 0.00 24 1013.6
20260509062557 18 44 0.0 1.6 0.00 0.00 0.00 24 1013.6
20260509062057 19 44 0.0 3.2 0.00 0.00 0.00 21 1013.7
20260509061556 19 44 0.0 3.2 0.00 0.00 0.00 23 1013.7
20260509061053 19 44 0.0 1.6 0.00 0.00 0.00 23 1013.7
20260509060552 19 44 0.0 3.2 0.00 0.00 0.00 22 1013.7
20260509060051 19 44 0.0 3.2 0.00 0.00 0.00 22 1013.8
20260509055551 19 44 0.0 3.2 0.00 0.00 0.00 21 1013.8
20260509055054 19 44 0.0 3.2 0.00 0.00 0.00 22 1013.8
20260509054553 20 44 0.0 3.2 0.00 0.00 0.00 21 1013.8
20260509054052 20 44 0.0 3.2 0.00 0.00 0.00 20 1013.9
20260509053551 19 44 0.0 6.4 0.00 0.00 0.00 22 1013.8
20260509053052 19 44 1.6 6.4 0.00 0.00 0.00 22 1013.9
20260509052550 19 44 1.6 3.2 0.00 0.00 0.00 22 1014.0
20260509052049 20 44 0.0 3.2 0.00 0.00 0.00 22 1014.0
20260509051558 20 44 0.0 3.2 0.00 0.00 0.00 22 1014.0
20260509051049 20 44 1.6 6.4 0.00 0.00 0.00 21 1014.1
20260509050549 20 44 0.0 6.4 0.00 0.00 0.00 20 1014.1
20260509050049 20 46 3.2 4.8 0.00 0.00 0.00 20 1014.1
20260509045548 20 136 0.0 3.2 0.00 0.00 0.00 21 1014.1
20260509045048 20 136 0.0 3.2 0.00 0.00 0.00 21 1014.2
20260509044549 20 136 0.0 3.2 0.00 0.00 0.00 22 1014.1
20260509044047 20 136 0.0 3.2 0.00 0.00 0.00 21 1014.1
20260509043548 20 136 0.0 3.2 0.00 0.00 0.00 21 1014.1
20260509043048 20 136 0.0 3.2 0.00 0.00 0.00 22 1014.1
20260509042550 20 136 0.0 3.2 0.00 0.00 0.00 23 1014.0
20260509042048 20 136 0.0 3.2 0.00 0.00 0.00 24 1014.0
20260509041548 20 140 0.0 1.6 0.00 0.00 0.00 25 1013.9
20260509041047 20 140 0.0 1.6 0.00 0.00 0.00 24 1013.9
20260509040550 20 140 0.0 1.6 0.00 0.00 0.00 25 1013.8
20260509040046 20 140 0.0 1.6 0.00 0.00 0.00 24 1013.7
20260509035546 21 140 0.0 0.0 0.00 0.00 0.00 24 1013.7
20260509035046 21 140 0.0 0.0 0.00 0.00 0.00 22 1013.7
20260509034548 21 140 0.0 0.0 0.00 0.00 0.00 22 1013.6
20260509034045 21 140 0.0 0.0 0.00 0.00 0.00 22 1013.5
20260509033545 21 140 0.0 6.4 0.00 0.00 0.00 22 1013.4
20260509033045 21 140 0.0 6.4 0.00 0.00 0.00 22 1013.3
20260509032545 22 43 0.0 3.2 0.00 0.00 0.00 20 1013.2
20260509032042 22 43 0.0 1.6 0.00 0.00 0.00 20 1013.1
20260509031541 22 43 0.0 1.6 0.00 0.00 0.00 19 1013.0